• In Latvia
  • List of Countries
  • For 7 days
  • Water Temperature
  • Satellite Maps
  • Weather Map
  • Weather Widgets
  • user-avatar
    Login

    Hourly Weather Donets'k

    Today, 20 September, Thursday

    Time Temperature Precipitation Wind Pressure Humidity
    00:00 +17°C° 0 mm 0 mps 750 mmHg 51%
    01:00 +19°C° 0 mm 1 mps 750 mmHg 53%
    02:00 +19°C° 0 mm 1 mps 750 mmHg 54%
    03:00 +19°C° 0 mm 1 mps 750 mmHg 54%
    04:00 +18°C° 0 mm 1 mps 750 mmHg 55%
    05:00 +18°C° 0 mm 1 mps 750 mmHg 57%
    06:00 +18°C° 0 mm 1 mps 750 mmHg 58%
    07:00 +20°C° 0 mm 1 mps 750 mmHg 53%
    08:00 +20°C° 0 mm 2 mps 750 mmHg 48%
    09:00 +23°C° 0 mm 2 mps 750 mmHg 44%
    10:00 +25°C° 0 mm 2 mps 750 mmHg 40%
    11:00 +26°C° 0 mm 3 mps 750 mmHg 37%
    12:00 +28°C° 0 mm 3 mps 750 mmHg 33%
    13:00 +29°C° 0 mm 3 mps 750 mmHg 31%
    14:00 +29°C° 0 mm 3 mps 750 mmHg 30%
    15:00 +30°C° 0 mm 3 mps 749 mmHg 28%
    16:00 +29°C° 0 mm 3 mps 749 mmHg 31%
    17:00 +28°C° 0 mm 3 mps 749 mmHg 33%
    18:00 +27°C° 0 mm 2 mps 749 mmHg 36%
    19:00 +26°C° 0 mm 2 mps 749 mmHg 39%
    20:00 +25°C° 0 mm 2 mps 749 mmHg 42%
    21:00 +23°C° 0 mm 2 mps 749 mmHg 45%
    22:00 +23°C° 0 mm 2 mps 749 mmHg 48%
    23:00 +21°C° 0 mm 2 mps 749 mmHg 51%

    Tomorrow, 21 September, Friday

    Time Temperature Precipitation Wind Pressure Humidity
    00:00 +21°C° 0 mm 2 mps 749 mmHg 53%
    01:00 +20°C° 0 mm 2 mps 749 mmHg 56%
    02:00 +20°C° 0 mm 2 mps 749 mmHg 58%
    03:00 +19°C° 0 mm 2 mps 749 mmHg 60%
    04:00 +19°C° 0 mm 2 mps 749 mmHg 63%
    05:00 +19°C° 0 mm 2 mps 749 mmHg 65%
    06:00 +18°C° 0 mm 2 mps 749 mmHg 67%
    07:00 +20°C° 0 mm 2 mps 749 mmHg 63%
    08:00 +23°C° 0 mm 2 mps 749 mmHg 59%
    09:00 +24°C° 0 mm 2 mps 749 mmHg 55%
    10:00 +26°C° 0 mm 2 mps 749 mmHg 50%
    11:00 +27°C° 0 mm 3 mps 749 mmHg 45%
    12:00 +28°C° 0 mm 3 mps 749 mmHg 40%
    13:00 +29°C° 0 mm 3 mps 749 mmHg 37%
    14:00 +30°C° 0 mm 3 mps 749 mmHg 35%
    15:00 +30°C° 0 mm 3 mps 749 mmHg 32%
    16:00 +30°C° 0 mm 2 mps 749 mmHg 34%
    17:00 +29°C° 0 mm 2 mps 749 mmHg 35%
    18:00 +28°C° 0 mm 2 mps 748 mmHg 37%
    19:00 +27°C° 0 mm 2 mps 749 mmHg 39%
    20:00 +25°C° 0 mm 2 mps 749 mmHg 42%
    21:00 +24°C° 0 mm 2 mps 749 mmHg 44%
    22:00 +24°C° 0 mm 2 mps 749 mmHg 45%
    23:00 +23°C° 0 mm 2 mps 749 mmHg 47%

    Day after tomorrow, 22 September, Saturday

    Time Temperature Precipitation Wind Pressure Humidity
    00:00 +21°C° 0 mm 3 mps 749 mmHg 48%
    01:00 +21°C° 0 mm 3 mps 749 mmHg 49%
    02:00 +20°C° 0 mm 3 mps 749 mmHg 51%
    03:00 +20°C° 0 mm 3 mps 749 mmHg 52%
    04:00 +19°C° 0 mm 3 mps 749 mmHg 53%
    05:00 +19°C° 0 mm 3 mps 749 mmHg 55%
    06:00 +18°C° 0 mm 2 mps 749 mmHg 56%
    07:00 +20°C° 0 mm 3 mps 749 mmHg 52%
    08:00 +21°C° 0 mm 3 mps 749 mmHg 49%
    09:00 +22°C° 0 mm 3 mps 749 mmHg 45%
    10:00 +25°C° 0 mm 3 mps 749 mmHg 41%
    11:00 +26°C° 0 mm 3 mps 749 mmHg 37%
    12:00 +28°C° 0 mm 3 mps 749 mmHg 33%
    13:00 +28°C° 0 mm 3 mps 749 mmHg 31%
    14:00 +29°C° 0 mm 3 mps 748 mmHg 29%
    15:00 +29°C° 0 mm 3 mps 748 mmHg 27%
    16:00 +28°C° 0 mm 2 mps 748 mmHg 29%
    17:00 +28°C° 0 mm 2 mps 747 mmHg 32%
    18:00 +27°C° 0 mm 2 mps 747 mmHg 34%
    19:00 +25°C° 0 mm 2 mps 747 mmHg 36%
    20:00 +24°C° 0 mm 2 mps 747 mmHg 39%
    21:00 +23°C° 0 mm 2 mps 747 mmHg 41%
    22:00 +21°C° 0 mm 2 mps 747 mmHg 43%
    23:00 +21°C° 0 mm 2 mps 747 mmHg 45%

    23 September, Sunday

    Time Temperature Precipitation Wind Pressure Humidity
    00:00 +20°C° 0 mm 2 mps 747 mmHg 46%
    01:00 +20°C° 0 mm 2 mps 746 mmHg 48%
    02:00 +19°C° 0 mm 2 mps 746 mmHg 49%
    03:00 +19°C° 0 mm 2 mps 746 mmHg 51%
    04:00 +19°C° 0 mm 2 mps 745 mmHg 52%
    05:00 +18°C° 0 mm 2 mps 745 mmHg 54%
    06:00 +18°C° 0 mm 2 mps 745 mmHg 55%
    07:00 +20°C° 0 mm 2 mps 745 mmHg 52%
    08:00 +21°C° 0 mm 3 mps 745 mmHg 49%
    09:00 +22°C° 0 mm 3 mps 744 mmHg 45%
    10:00 +25°C° 0 mm 4 mps 744 mmHg 42%
    11:00 +26°C° 0 mm 4 mps 744 mmHg 38%
    12:00 +28°C° 0 mm 5 mps 744 mmHg 35%
    13:00 +26°C° 0.1 mm 6 mps 744 mmHg 43%
    14:00 +22°C° 0.1 mm 6 mps 744 mmHg 51%
    15:00 +20°C° 0.1 mm 7 mps 744 mmHg 59%
    16:00 +17°C° 0.2 mm 7 mps 745 mmHg 62%
    17:00 +16°C° 0.2 mm 7 mps 745 mmHg 65%
    18:00 +14°C° 0.2 mm 6 mps 745 mmHg 69%
    19:00 +13°C° 0 mm 6 mps 746 mmHg 67%
    20:00 +13°C° 0 mm 5 mps 746 mmHg 66%
    21:00 +12°C° 0 mm 4 mps 747 mmHg 65%
    22:00 +12°C° 0 mm 4 mps 747 mmHg 66%
    23:00 +12°C° 0 mm 3 mps 748 mmHg 67%

    24 September, Monday

    Time Temperature Precipitation Wind Pressure Humidity
    00:00 +11°C° 0 mm 3 mps 748 mmHg 68%
    01:00 +12°C° 0 mm 2 mps 748 mmHg 70%
    02:00 +12°C° 0 mm 2 mps 748 mmHg 71%
    03:00 +11°C° 0 mm 1 mps 748 mmHg 73%
    04:00 +11°C° 0 mm 1 mps 749 mmHg 73%
    05:00 +11°C° 0 mm 1 mps 749 mmHg 73%
    06:00 +10°C° 0 mm 1 mps 749 mmHg 73%
    07:00 +12°C° 0 mm 1 mps 749 mmHg 65%
    08:00 +13°C° 0 mm 2 mps 748 mmHg 57%
    09:00 +15°C° 0 mm 2 mps 748 mmHg 49%
    10:00 +17°C° 0 mm 3 mps 748 mmHg 42%
    11:00 +18°C° 0 mm 4 mps 748 mmHg 35%
    12:00 +20°C° 0 mm 5 mps 747 mmHg 29%
    13:00 +20°C° 0 mm 5 mps 747 mmHg 28%
    14:00 +21°C° 0 mm 5 mps 746 mmHg 28%
    15:00 +21°C° 0 mm 5 mps 746 mmHg 28%
    16:00 +20°C° 0 mm 5 mps 745 mmHg 32%
    17:00 +19°C° 0 mm 5 mps 744 mmHg 36%
    18:00 +19°C° 0 mm 6 mps 744 mmHg 40%
    19:00 +17°C° 0 mm 6 mps 744 mmHg 43%
    20:00 +16°C° 0 mm 5 mps 743 mmHg 46%
    21:00 +15°C° 0 mm 5 mps 743 mmHg 49%
    22:00 +15°C° 0 mm 6 mps 743 mmHg 51%
    23:00 +15°C° 0 mm 6 mps 743 mmHg 52%

    25 September, Tuesday

    Time Temperature Precipitation Wind Pressure Humidity
    00:00 +15°C° 0 mm 6 mps 743 mmHg 54%
    01:00 +15°C° 0.1 mm 6 mps 743 mmHg 58%
    02:00 +14°C° 0.1 mm 6 mps 743 mmHg 63%
    03:00 +13°C° 0.1 mm 6 mps 743 mmHg 68%
    04:00 +12°C° 0 mm 5 mps 744 mmHg 69%
    05:00 +10°C° 0 mm 5 mps 744 mmHg 70%
    06:00 +9°C° 0 mm 5 mps 745 mmHg 71%
    07:00 +10°C° 0 mm 5 mps 745 mmHg 66%
    08:00 +11°C° 0 mm 6 mps 746 mmHg 60%
    09:00 +11°C° 0 mm 6 mps 747 mmHg 55%
    10:00 +14°C° 0 mm 6 mps 747 mmHg 49%
    11:00 +15°C° 0 mm 6 mps 747 mmHg 44%
    12:00 +16°C° 0 mm 6 mps 747 mmHg 38%
    13:00 +16°C° 0 mm 6 mps 747 mmHg 36%
    14:00 +17°C° 0 mm 6 mps 747 mmHg 34%
    15:00 +17°C° 0 mm 6 mps 747 mmHg 32%
    16:00 +16°C° 0 mm 5 mps 748 mmHg 34%
    17:00 +15°C° 0 mm 5 mps 748 mmHg 35%
    18:00 +14°C° 0 mm 4 mps 748 mmHg 37%
    19:00 +13°C° 0 mm 4 mps 749 mmHg 39%
    20:00 +12°C° 0 mm 4 mps 749 mmHg 41%
    21:00 +11°C° 0 mm 3 mps 750 mmHg 43%
    22:00 +11°C° 0 mm 3 mps 750 mmHg 45%
    23:00 +11°C° 0 mm 3 mps 750 mmHg 46%
    Show more